Location: Baia Mare
(47.6567°N, 23.5850°E)
Time: 11:40:02
(UTC+02:00)

ISS - Pass Details

Date: 02 February 2019
Orbit: 404 x 407 km, 51.6° (Epoch: 16 January)

Event Time Altitude Azimuth Distance (km) Brightness Sun altitude
Rises 18:57:03 0° 288° (WNW) 2,327 1.2 -15.2°
Reaches altitude 10° 18:59:11 10° 295° (WNW) 1,466 -0.1 -15.6°
Maximum altitude 19:02:22 44° 10° (N) 574 -3.3 -16.1°
Enters shadow 19:03:04 37° 47° (NE) 648 -3.2 -16.2°
